Regional Weather Roundup
Issued by NWS Sioux Falls, SD

Home | Current Version | Previous Version | Text Only | Print | Product List | Glossary On
Versions: 1 2 3 4 5 6 7 8 9 10 11 12 13 14 15 16 17 18 19 20 21 22 23 24 25 26 27 28 29 30 31 32 33 34 35 36 37 38 39 40 41 42 43 44 45 46 47 48 49 50
000
ASUS43 KFSD 301710
RWRFSD

WEATHER ROUNDUP FOR SE SOUTH DAKOTA/SW MINNESOTA/NW IOWA
NATIONAL WEATHER SERVICE SIOUX FALLS SD
1200 PM CDT FRI SEP 30 2016

NOTE: "FAIR" INDICATES FEW OR NO CLOUDS BELOW 12,000 FEET WITH NO
SIGNIFICANT WEATHER AND OR OBSTRUCTIONS TO VISIBILITY.


SDZ038>040-050-052>070-301800-
SOUTHEAST SOUTH DAKOTA

CITY           SKY/WX    TMP DP  RH WIND       PRES   REMARKS
BROOKINGS      SUNNY     65  51  60 S12       30.30
CHAMBERLAIN    SUNNY     69  51  52 S14       30.24S
HURON          MOSUNNY   65  47  52 S10       30.26F
MADISON        FAIR      64  54  68 S9        30.31F
MITCHELL       SUNNY     69  46  43 S14       30.27F
SIOUX FALLS    MOSUNNY   67  52  58 SE7       30.30F
WINNER         FAIR      65  48  54 S16       30.22F
YANKTON        SUNNY     64  52  63 E8        30.27F
$$

MNZ071-072-080-081-089-090-097-098-301800-
SOUTHWEST MINNESOTA

CITY           SKY/WX    TMP DP  RH WIND       PRES   REMARKS
FAIRMONT       SUNNY     68  50  52 VRB7      30.32F
JACKSON        SUNNY     68  46  45 E10       30.33F
LUVERNE        MOSUNNY   66  46  48 S5        30.32F
MARSHALL       SUNNY     60  53  77 E7        30.34F
MONTEVIDEO     MOSUNNY   63  55  77 S5        30.35F
PIPESTONE      SUNNY     66  48  52 S5        30.32F
REDWOOD FALLS  SUNNY     61  53  75 VRB3      30.35S
TRACY          SUNNY     64  55  72 E6        30.34F
WINDOM         SUNNY     66  52  59 SE6       30.33F
WORTHINGTON    SUNNY     67  50  54 E12       30.33F
$$

IAZ001>003-012>014-020>022-031-032-NEZ013-014-SDZ071-301800-
NORTHWEST IOWA

CITY           SKY/WX    TMP DP  RH WIND       PRES   REMARKS
CHEROKEE       MOSUNNY   67  51  56 NE7       30.31F
DENISON        MOSUNNY   68  52  56 N9        30.27F
ESTHERVILLE    SUNNY     66  51  58 NE8       30.31F
LE MARS        SUNNY     68  48  49 CALM      30.31F
SHELDON        MOSUNNY   68  48  49 SE8       30.30F
SIOUX CITY     SUNNY     68  52  56 VRB3      30.29F
SPENCER        MOSUNNY   69  52  54 NE9       30.31F
STORM LAKE     SUNNY     66  50  55 NE8       30.31F
$$

ABBREVIATIONS USED IN REMARKS
   TC - TEMPERATURE IN CELSIUS
  WCI - WIND CHILL INDEX
   HX - HEAT INDEX
  VSB - VISIBILITY





USA.gov is the U.S. government's official web portal to all federal, state and local government web resources and services.